Total_Precipitation_Accumulation
0.66 0.49 0.39 0.39 0.40 0.39 0.42 0.56 0.96 1.44 1.85 2.11 2.29 2.32 2.23 1.97 1.72 1.69 1.77 1.78 1.71 1.54 1.43 1.31 1.20 1.17 1.12 1.07 1.00 0.98 1.06 1.19 1.28 1.22 1.21 1.29 1.37 1.26 1.10 1.05 0.97 0.94 0.89 0.85
0.54 0.44 0.43 0.53 0.51 0.55 0.58 0.66 0.89 1.34 1.90 1.99 1.96 1.77 1.79 1.77 1.65 1.75 1.90 1.96 1.90 1.73 1.55 1.38 1.25 1.17 1.13 1.07 0.95 0.92 0.98 1.11 1.18 1.17 1.16 1.18 1.23 1.17 1.10 1.03 1.00 0.95 0.94 0.91
0.75 0.56 0.70 1.12 0.89 0.84 0.89 0.89 1.02 1.43 1.63 1.45 1.49 1.50 1.57 1.62 1.67 1.85 1.99 2.01 1.93 1.82 1.64 1.45 1.36 1.25 1.24 1.16 1.03 1.03 1.03 1.03 1.10 1.13 1.18 1.20 1.19 1.16 1.13 1.14 1.14 1.05 0.96 0.93
0.78 0.91 1.52 1.44 0.89 0.84 0.90 0.94 0.90 0.97 0.99 1.08 1.19 1.33 1.51 1.61 1.74 1.96 2.09 2.19 2.10 1.87 1.69 1.46 1.30 1.22 1.18 1.12 1.05 1.09 1.05 1.00 1.01 1.00 1.02 1.03 1.10 1.15 1.14 1.13 1.07 1.00 0.93 0.89
1.03 1.36 1.59 1.33 0.85 0.80 0.99 1.18 0.90 0.81 0.79 0.89 0.98 1.17 1.63 1.73 1.79 1.94 2.06 2.05 1.99 1.80 1.66 1.53 1.35 1.25 1.18 1.13 1.11 1.06 1.00 0.96 0.91 0.85 0.87 0.90 0.97 1.08 1.17 1.15 1.04 0.94 0.86 0.84
1.18 1.64 2.06 1.68 0.78 0.52 0.83 1.53 1.04 0.73 0.68 0.85 1.04 1.39 1.62 1.54 1.55 1.58 1.60 1.54 1.50 1.44 1.41 1.38 1.25 1.19 1.18 1.17 1.12 1.02 0.91 0.84 0.78 0.79 0.83 0.84 0.91 1.02 1.09 1.14 1.02 0.84 0.76 0.77
1.23 1.63 1.83 0.98 0.54 0.58 1.37 1.73 1.20 0.97 0.87 0.91 1.13 1.27 1.18 1.16 1.26 1.32 1.34 1.30 1.21 1.19 1.25 1.24 1.15 1.16 1.18 1.13 1.04 0.90 0.80 0.77 0.76 0.80 0.85 0.84 0.95 1.03 1.00 0.94 0.91 0.82 0.76 0.75
1.37 1.81 1.90 0.77 0.58 1.03 1.26 0.95 0.93 0.98 0.94 0.94 0.95 0.91 0.91 1.02 1.24 1.34 1.48 1.39 1.25 1.21 1.18 1.13 1.13 1.21 1.20 1.10 0.90 0.78 0.75 0.77 0.80 0.80 0.76 0.76 0.92 1.00 0.92 0.89 0.88 0.83 0.80 0.74
1.44 1.63 1.21 0.68 0.68 0.70 0.70 0.69 0.70 0.75 0.75 0.78 0.89 0.92 0.85 0.96 1.17 1.33 1.42 1.36 1.28 1.19 1.13 1.06 1.04 1.09 1.08 0.92 0.72 0.66 0.71 0.80 0.82 0.77 0.84 0.85 0.84 0.87 0.88 0.89 0.79 0.71 0.73 0.69
1.17 1.14 0.83 0.65 0.56 0.52 0.54 0.57 0.58 0.65 0.70 0.75 0.93 0.97 0.90 0.93 1.08 1.25 1.28 1.16 1.06 0.99 0.96 0.90 0.82 0.79 0.76 0.64 0.59 0.64 0.75 0.81 0.80 0.82 0.90 0.89 0.81 0.71 0.69 0.70 0.67 0.62 0.62 0.60
1.44 1.27 0.97 0.70 0.57 0.57 0.55 0.57 0.61 0.70 0.72 0.77 0.83 0.89 0.91 0.93 0.98 1.02 1.04 1.00 0.89 0.84 0.79 0.68 0.63 0.59 0.53 0.50 0.54 0.64 0.69 0.75 0.76 0.76 0.81 0.86 0.78 0.63 0.58 0.51 0.44 0.45 0.47 0.46
1.78 1.41 1.25 0.96 0.73 0.72 0.71 0.69 0.69 0.67 0.64 0.66 0.66 0.68 0.74 0.76 0.79 0.82 0.86 0.84 0.82 0.73 0.67 0.59 0.57 0.54 0.50 0.46 0.49 0.62 0.66 0.63 0.59 0.62 0.66 0.69 0.70 0.60 0.43 0.29 0.23 0.22 0.24 0.28
1.41 1.13 1.01 0.92 0.81 0.79 0.71 0.57 0.51 0.50 0.47 0.50 0.54 0.54 0.55 0.55 0.58 0.63 0.68 0.67 0.65 0.61 0.55 0.55 0.53 0.48 0.47 0.44 0.44 0.52 0.61 0.59 0.50 0.48 0.54 0.57 0.57 0.64 0.57 0.36 0.20 0.15 0.15 0.19
0.97 0.91 0.86 0.69 0.53 0.44 0.37 0.32 0.33 0.35 0.35 0.33 0.36 0.39 0.40 0.41 0.45 0.50 0.57 0.55 0.49 0.45 0.44 0.46 0.48 0.42 0.39 0.40 0.44 0.47 0.47 0.43 0.44 0.50 0.50 0.47 0.45 0.45 0.50 0.56 0.49 0.36 0.24 0.21
0.64 0.66 0.57 0.40 0.29 0.27 0.25 0.25 0.30 0.32 0.32 0.32 0.30 0.32 0.32 0.35 0.40 0.43 0.48 0.47 0.43 0.41 0.42 0.42 0.43 0.39 0.34 0.35 0.40 0.44 0.44 0.41 0.43 0.44 0.42 0.39 0.36 0.35 0.38 0.44 0.47 0.48 0.43 0.35
0.42 0.41 0.38 0.32 0.28 0.25 0.26 0.27 0.32 0.31 0.31 0.31 0.31 0.31 0.30 0.29 0.29 0.36 0.43 0.44 0.45 0.47 0.47 0.45 0.42 0.34 0.30 0.31 0.33 0.38 0.36 0.33 0.34 0.37 0.33 0.31 0.33 0.36 0.35 0.40 0.43 0.46 0.49 0.47
0.38 0.36 0.36 0.37 0.33 0.29 0.27 0.28 0.29 0.27 0.28 0.27 0.25 0.24 0.24 0.24 0.27 0.34 0.39 0.40 0.42 0.48 0.50 0.49 0.40 0.31 0.28 0.27 0.30 0.31 0.31 0.30 0.31 0.30 0.27 0.28 0.31 0.32 0.31 0.35 0.39 0.42 0.39 0.39
0.37 0.36 0.34 0.39 0.39 0.34 0.28 0.26 0.26 0.23 0.23 0.22 0.19 0.20 0.22 0.25 0.29 0.34 0.36 0.37 0.38 0.44 0.46 0.44 0.37 0.31 0.29 0.29 0.30 0.27 0.27 0.28 0.28 0.25 0.25 0.24 0.26 0.28 0.28 0.31 0.34 0.39 0.39 0.39
0.37 0.36 0.29 0.28 0.31 0.32 0.28 0.25 0.23 0.21 0.19 0.19 0.21 0.22 0.24 0.26 0.27 0.29 0.32 0.37 0.42 0.45 0.42 0.36 0.35 0.34 0.33 0.31 0.30 0.27 0.27 0.29 0.28 0.25 0.25 0.25 0.26 0.27 0.27 0.29 0.30 0.34 0.38 0.42
0.33 0.34 0.30 0.26 0.25 0.28 0.30 0.26 0.21 0.20 0.20 0.21 0.23 0.24 0.25 0.26 0.26 0.28 0.32 0.39 0.43 0.37 0.31 0.29 0.29 0.30 0.30 0.32 0.35 0.31 0.29 0.28 0.27 0.28 0.29 0.29 0.29 0.27 0.24 0.22 0.26 0.30 0.34 0.37
0.34 0.34 0.31 0.28 0.28 0.28 0.27 0.28 0.26 0.23 0.23 0.22 0.24 0.27 0.29 0.28 0.27 0.30 0.33 0.36 0.34 0.30 0.27 0.26 0.26 0.28 0.28 0.29 0.30 0.29 0.29 0.29 0.29 0.28 0.26 0.25 0.25 0.23 0.21 0.22 0.25 0.25 0.27 0.29
0.37 0.38 0.31 0.27 0.29 0.31 0.29 0.28 0.27 0.24 0.24 0.24 0.24 0.27 0.31 0.31 0.31 0.31 0.31 0.32 0.30 0.27 0.27 0.26 0.25 0.28 0.27 0.24 0.22 0.24 0.24 0.25 0.26 0.25 0.21 0.20 0.20 0.20 0.19 0.21 0.23 0.23 0.22 0.25
0.40 0.37 0.29 0.25 0.27 0.31 0.29 0.25 0.24 0.25 0.26 0.26 0.26 0.27 0.29 0.29 0.31 0.31 0.30 0.28 0.27 0.25 0.24 0.25 0.25 0.24 0.21 0.18 0.19 0.21 0.21 0.21 0.22 0.22 0.19 0.17 0.18 0.20 0.21 0.21 0.23 0.22 0.22 0.22
0.42 0.37 0.32 0.25 0.26 0.30 0.33 0.31 0.25 0.24 0.27 0.29 0.28 0.28 0.29 0.30 0.29 0.26 0.24 0.26 0.27 0.23 0.19 0.18 0.19 0.17 0.15 0.13 0.15 0.17 0.20 0.20 0.19 0.17 0.17 0.18 0.19 0.21 0.21 0.19 0.20 0.19 0.19 0.19
0.51 0.44 0.34 0.31 0.34 0.36 0.36 0.34 0.33 0.31 0.32 0.33 0.30 0.30 0.31 0.32 0.30 0.24 0.23 0.26 0.27 0.23 0.18 0.15 0.14 0.14 0.14 0.12 0.12 0.14 0.15 0.17 0.17 0.17 0.16 0.18 0.19 0.19 0.18 0.18 0.20 0.21 0.22 0.22
0.61 0.55 0.47 0.40 0.37 0.36 0.34 0.37 0.38 0.36 0.38 0.41 0.39 0.35 0.34 0.30 0.25 0.23 0.24 0.25 0.24 0.22 0.17 0.15 0.16 0.16 0.14 0.13 0.14 0.14 0.14 0.13 0.13 0.14 0.16 0.16 0.15 0.14 0.14 0.15 0.18 0.18 0.19 0.20
0.71 0.66 0.59 0.47 0.38 0.35 0.37 0.41 0.40 0.37 0.35 0.37 0.38 0.36 0.32 0.30 0.27 0.24 0.24 0.25 0.23 0.21 0.18 0.17 0.19 0.19 0.17 0.15 0.16 0.17 0.16 0.15 0.14 0.16 0.15 0.15 0.15 0.15 0.15 0.14 0.16 0.17 0.18 0.19